Time_in_sec,Mx,My,Mz
1312471038.63558292,-0.57050276,-0.41171712,-0.84210342
1312471038.68429494,-0.57416838,-0.41336387,-0.83948106
1312471038.73619652,-0.57201326,-0.41093546,-0.84206212
1312471038.78443694,-0.57329160,-0.41091323,-0.84280795
1312471038.84842396,-0.57376164,-0.41124892,-0.84371358
1312471038.88843584,-0.57323474,-0.41025612,-0.84167469
1312471038.93544292,-0.57001853,-0.41091552,-0.84296232
1312471038.98442316,-0.57255149,-0.41291472,-0.84430319
1312471039.03636122,-0.57436979,-0.41202074,-0.84253335
1312471039.08892202,-0.57362306,-0.41433394,-0.84180093
1312471039.13640976,-0.57309842,-0.41023275,-0.84395170
1312471039.18843627,-0.57367516,-0.41496113,-0.84273994
1312471039.24446058,-0.57348782,-0.41520241,-0.84420568
1312471039.28432012,-0.57331198,-0.40962887,-0.84060872
1312471039.33542705,-0.57267880,-0.41316995,-0.84417421
1312471039.38762927,-0.57216311,-0.41281217,-0.84240001
1312471039.43634534,-0.57275718,-0.41343454,-0.84323597
1312471039.48876834,-0.57355791,-0.41342962,-0.84287912
1312471039.53632021,-0.57342553,-0.41381255,-0.84300297
1312471039.58745480,-0.57167125,-0.41471899,-0.84356683
1312471039.63633752,-0.57293725,-0.41179875,-0.84385574
1312471039.68845677,-0.57287502,-0.41438350,-0.84087670
1312471039.73634458,-0.57363105,-0.41408283,-0.84428173
1312471039.78883386,-0.57355040,-0.41295162,-0.84280759
1312471039.83670092,-0.57189339,-0.41294745,-0.84486175
1312471039.88730145,-0.57378107,-0.41483817,-0.84220940
1312471039.93668151,-0.57195133,-0.41305813,-0.84346110
1312471039.98845387,-0.57307404,-0.41227642,-0.84380054
1312471040.03671193,-0.57344609,-0.41340157,-0.84556073
1312471040.08730674,-0.57358444,-0.41316965,-0.84328574
1312471040.13530993,-0.57348156,-0.41290975,-0.84381938
1312471040.18746114,-0.57340926,-0.41483516,-0.84285992
1312471040.23678327,-0.57380354,-0.41213295,-0.84451574
1312471040.28733897,-0.57335526,-0.41252691,-0.84394932
1312471040.33681369,-0.57331872,-0.41212687,-0.84556293
1312471040.38441849,-0.57369959,-0.41393697,-0.84301788
1312471040.44337225,-0.57145834,-0.41305360,-0.84437340
1312471040.48442578,-0.57166880,-0.40783787,-0.84267759
1312471040.53531027,-0.57308120,-0.41240248,-0.84393442
1312471040.58442640,-0.57454407,-0.41547763,-0.84130794
1312471040.63649178,-0.57262790,-0.41149828,-0.84539342
1312471040.68970203,-0.57325023,-0.41445854,-0.84245038
1312471040.73637724,-0.57316667,-0.41177365,-0.84300333
1312471040.78434229,-0.57109654,-0.41371059,-0.84300363
1312471040.84831047,-0.57326472,-0.41379386,-0.84487534
1312471040.88834238,-0.57236147,-0.40979633,-0.84088153
1312471040.93528199,-0.57097548,-0.41233781,-0.84320098
1312471040.98833799,-0.57301778,-0.41384655,-0.84317321
1312471041.03627706,-0.57336003,-0.41255641,-0.84414321
1312471041.08733511,-0.57375306,-0.41385412,-0.84173757
1312471041.13530469,-0.57200229,-0.41244170,-0.84433436
1312471041.18429470,-0.57293546,-0.41536143,-0.84188789
1312471041.24445224,-0.57180154,-0.41255233,-0.84318745
1312471041.28452015,-0.57241058,-0.41115758,-0.84175473
1312471041.33630013,-0.57256174,-0.41367736,-0.84456682
1312471041.38843656,-0.57256466,-0.41523078,-0.84253943
1312471041.43531704,-0.57224476,-0.41279656,-0.84374875
1312471041.48828244,-0.57332063,-0.41380790,-0.84353453
1312471041.53530455,-0.57147557,-0.41190335,-0.84451741
1312471041.58501410,-0.57344300,-0.41572076,-0.84352720
1312471041.64431357,-0.57234770,-0.41407594,-0.84334195
1312471041.68442893,-0.57196122,-0.41030839,-0.84112328
1312471041.73685241,-0.57466590,-0.41316593,-0.84542328
1312471041.78443098,-0.57437855,-0.41357845,-0.84298503
1312471041.83532763,-0.57207870,-0.41398066,-0.84352106
1312471041.88744783,-0.57284868,-0.41474602,-0.84275359
1312471041.93629217,-0.57344753,-0.41269177,-0.84334105
1312471041.98443556,-0.57238328,-0.41435403,-0.84407330
1312471042.04755950,-0.57372463,-0.41345263,-0.84348571
1312471042.08430243,-0.57191724,-0.40866053,-0.84019256
1312471042.13533187,-0.57242185,-0.41347954,-0.84233534
1312471042.18443465,-0.57348728,-0.41474739,-0.84198427
1312471042.23645926,-0.57351089,-0.41395372,-0.84454447
1312471042.28477812,-0.57183409,-0.41413018,-0.84175909
1312471042.33647275,-0.57156432,-0.41359803,-0.84403169
1312471042.38444686,-0.57323879,-0.41550994,-0.84250164
1312471042.43596458,-0.57069945,-0.41246861,-0.84318405
1312471042.48442841,-0.57321960,-0.41202423,-0.84628892
1312471042.53534532,-0.57282233,-0.41408932,-0.84450370
1312471042.58431411,-0.57173848,-0.41501561,-0.84255308
1312471042.63652277,-0.57252079,-0.41435242,-0.84408122
1312471042.68433046,-0.57372779,-0.41510829,-0.84374219
1312471042.73536873,-0.57317263,-0.41473344,-0.84357858
1312471042.78840899,-0.57296586,-0.41230288,-0.84439105
1312471042.83853269,-0.57294452,-0.41396326,-0.84424299
1312471042.88745522,-0.57291913,-0.41613400,-0.84409088
1312471042.94031644,-0.57266438,-0.41358522,-0.84409529
1312471042.98813891,-0.57388872,-0.41421035,-0.84402692
1312471043.03633380,-0.57206541,-0.41360098,-0.84325439
1312471043.08732843,-0.57418519,-0.41560450,-0.84457105
1312471043.13633943,-0.57162338,-0.41424847,-0.84282094
1312471043.18843675,-0.57397735,-0.41625661,-0.84347922
1312471043.23617578,-0.57223558,-0.41292575,-0.84361285
1312471043.28733563,-0.57346654,-0.41390741,-0.84596133
1312471043.33543086,-0.57419586,-0.41366127,-0.84439254
1312471043.38842630,-0.57318109,-0.41508424,-0.84365129
1312471043.43672276,-0.57169175,-0.41328850,-0.84599787
1312471043.48730493,-0.57367939,-0.41455328,-0.84502798
1312471043.53564858,-0.57188731,-0.41406515,-0.84479374
1312471043.58463788,-0.57389539,-0.41583577,-0.84422445
1312471043.63647580,-0.57184339,-0.41343638,-0.84398955
1312471043.68756604,-0.57369459,-0.41559461,-0.84313953
1312471043.73531914,-0.57285714,-0.41316053,-0.84485656
1312471043.78830266,-0.57334071,-0.41396156,-0.84399718
1312471043.83635116,-0.57193112,-0.41332245,-0.84553295
1312471043.88729310,-0.57306266,-0.41434756,-0.84397823
1312471043.93634224,-0.57378685,-0.41382292,-0.84456140
1312471043.98829699,-0.57310450,-0.41421217,-0.84465349
1312471044.03666520,-0.57393765,-0.41420099,-0.84483600
1312471044.08836651,-0.57368690,-0.41307762,-0.84281451
1312471044.13640547,-0.57206345,-0.41192037,-0.84528238
1312471044.18846560,-0.57503575,-0.41546261,-0.84502429
1312471044.23629570,-0.57345772,-0.41243502,-0.84347790
1312471044.28730178,-0.57379144,-0.41468400,-0.84463030
1312471044.33630657,-0.57303143,-0.41264215,-0.84540808
1312471044.38443470,-0.57342452,-0.41394019,-0.84300196
1312471044.43629742,-0.57374567,-0.41339368,-0.84598130
1312471044.48443580,-0.57381690,-0.41353220,-0.84490919
1312471044.53640723,-0.57365036,-0.41369691,-0.84455448
1312471044.58847380,-0.57415867,-0.41484514,-0.84403777
1312471044.63650584,-0.57279497,-0.41457945,-0.84637958
1312471044.68732810,-0.57360256,-0.41561717,-0.84399986
1312471044.73639178,-0.57288855,-0.41292998,-0.84545678
1312471044.78784752,-0.57240272,-0.41498733,-0.84447277
1312471044.83650994,-0.57286608,-0.41267949,-0.84505427
1312471044.88741040,-0.57193816,-0.41436505,-0.84351003
1312471044.93544436,-0.57308912,-0.41306844,-0.84425807
1312471044.98499727,-0.57232732,-0.41332075,-0.84528708
1312471045.03635478,-0.57101738,-0.41322163,-0.84400290
1312471045.08439922,-0.57331121,-0.41562349,-0.84371424
1312471045.13648868,-0.57282960,-0.41329879,-0.84679431
1312471045.18445253,-0.57332134,-0.41434750,-0.84372443
1312471045.23636293,-0.57362813,-0.41354904,-0.84643543
1312471045.28443098,-0.57272977,-0.41265613,-0.84733081
1312471045.33651280,-0.57208800,-0.41293493,-0.84581363
1312471045.38444281,-0.57381856,-0.41496348,-0.84522653
1312471045.43662977,-0.57349163,-0.41342306,-0.84642845
1312471045.48434091,-0.57152683,-0.41434491,-0.84577066
1312471045.53645349,-0.57347858,-0.41416526,-0.84857202
1312471045.58443189,-0.57225800,-0.41384366,-0.84420425
1312471045.64730930,-0.57291424,-0.41290036,-0.84814578
1312471045.68744040,-0.57187998,-0.41052932,-0.84434170
1312471045.73674607,-0.57075596,-0.41279057,-0.84869385
1312471045.78843260,-0.57314247,-0.41570902,-0.84773481
1312471045.83629417,-0.57313621,-0.41341692,-0.84734857
1312471045.88869810,-0.57418841,-0.41532436,-0.84685755
1312471045.93674636,-0.57213801,-0.41381717,-0.84675044
1312471045.98843408,-0.57192516,-0.41317144,-0.84768355
1312471046.03665495,-0.57369053,-0.41402200,-0.84979457
1312471046.08740950,-0.57357770,-0.41324893,-0.84771979
1312471046.13671303,-0.57233393,-0.41209283,-0.84967262
1312471046.18846893,-0.57414937,-0.41464019,-0.84827995
1312471046.23556972,-0.57241535,-0.41299403,-0.84886414
1312471046.28829312,-0.57288903,-0.41338456,-0.84767902
1312471046.33650994,-0.57189584,-0.41324943,-0.84936982
1312471046.38845468,-0.57464349,-0.41553658,-0.84749538
1312471046.43648219,-0.57191426,-0.41401052,-0.84976834
1312471046.48844695,-0.57376426,-0.41323796,-0.84853703
1312471046.53672934,-0.57126933,-0.41273597,-0.85027826
1312471046.58838511,-0.57324064,-0.41695967,-0.84713489
1312471046.63692331,-0.57189375,-0.41315275,-0.84942865
1312471046.69030285,-0.57288176,-0.41596431,-0.84798658
1312471046.73684216,-0.57163709,-0.41289762,-0.84968448
1312471046.78840303,-0.57413161,-0.41350210,-0.85022706
1312471046.83638692,-0.57226449,-0.41430259,-0.84890395
1312471046.88431859,-0.57397324,-0.41347754,-0.84975684
1312471046.93659973,-0.57226783,-0.41233563,-0.85087651
1312471046.98813224,-0.57195300,-0.41323850,-0.85031396
1312471047.03566170,-0.57199895,-0.41463149,-0.85124689
1312471047.08729243,-0.57423109,-0.41564405,-0.84975547
1312471047.13643527,-0.57085776,-0.41261315,-0.85025537
1312471047.18444085,-0.57354540,-0.41539681,-0.84971774
1312471047.23647523,-0.57284248,-0.41334400,-0.85143971
1312471047.28843784,-0.57467121,-0.41127640,-0.85196406
1312471047.33546901,-0.57203466,-0.41424236,-0.85178947
1312471047.38442326,-0.57389593,-0.41410479,-0.85082287
1312471047.43542290,-0.57176971,-0.41296923,-0.85178375
1312471047.48729587,-0.57243603,-0.41360250,-0.85154867
1312471047.53637433,-0.57288331,-0.41333619,-0.85211408
1312471047.58443093,-0.57536811,-0.41613394,-0.85048944
1312471047.64843726,-0.57192576,-0.41474822,-0.85231698
1312471047.68848324,-0.57232279,-0.41054097,-0.85156512
1312471047.73538613,-0.57213467,-0.41396832,-0.85341007
1312471047.78732705,-0.57295358,-0.41462183,-0.85116774
1312471047.83628988,-0.57242197,-0.41345304,-0.85356492
1312471047.88729429,-0.57331932,-0.41539064,-0.85051107
1312471047.94052815,-0.57244313,-0.41347921,-0.85402632
1312471047.98843598,-0.57461464,-0.41294944,-0.85361820
1312471048.03531313,-0.57298088,-0.41296554,-0.85379249
1312471048.08842278,-0.57244414,-0.41630667,-0.85212404
1312471048.13532424,-0.57291675,-0.41193387,-0.85487145
1312471048.18433905,-0.57419509,-0.41486669,-0.85371399
1312471048.23685288,-0.57189620,-0.41412207,-0.85412425
1312471048.28460193,-0.57210600,-0.41219553,-0.85509139
1312471048.33651710,-0.57322758,-0.41459930,-0.85580993
1312471048.38431096,-0.57529801,-0.41538766,-0.85162389
1312471048.43592477,-0.57210726,-0.41343910,-0.85515958
1312471048.48842239,-0.57430989,-0.41213873,-0.85516214
1312471048.53627276,-0.57299453,-0.41369721,-0.85399932
1312471048.58430171,-0.57332253,-0.41511041,-0.85279810
1312471048.64733028,-0.57292235,-0.41368631,-0.85507041
1312471048.68729997,-0.57195097,-0.40951848,-0.85208893
1312471048.73663235,-0.57220602,-0.41319004,-0.85449517
1312471048.79541063,-0.57321471,-0.41355234,-0.85535711
1312471048.83672643,-0.57343328,-0.41322711,-0.84986198
1312471048.88734531,-0.57314515,-0.41397271,-0.85199004
1312471048.94766831,-0.57246882,-0.41267943,-0.85424542
1312471048.98734021,-0.57198966,-0.40874645,-0.85263455
1312471049.03633857,-0.57234460,-0.41306081,-0.85450417
1312471049.09633780,-0.57361084,-0.41446748,-0.85295397
1312471049.13641238,-0.57432681,-0.41282213,-0.85099179
1312471049.18431664,-0.57277751,-0.41549814,-0.85289812
1312471049.24442363,-0.57150304,-0.41374093,-0.85437316
1312471049.28443551,-0.57355607,-0.41068575,-0.85169297
1312471049.33688164,-0.57198673,-0.41285542,-0.85319847
1312471049.39643526,-0.57303381,-0.41438159,-0.85257566
1312471049.43654871,-0.57314962,-0.41288000,-0.84977192
1312471049.48729157,-0.57172203,-0.41397315,-0.85338616
1312471049.54343343,-0.57357734,-0.41368455,-0.85457069
1312471049.58433318,-0.57331723,-0.41065115,-0.85215932
1312471049.64843440,-0.57230890,-0.41344994,-0.85396159
1312471049.69542766,-0.57234627,-0.41066393,-0.85196877
1312471049.73630762,-0.57447863,-0.41045210,-0.84879202
1312471049.78734803,-0.57269770,-0.41297030,-0.85364175
1312471049.84842205,-0.57196224,-0.41286010,-0.85279393
1312471049.88434935,-0.57392782,-0.41068876,-0.85104263
1312471049.93682909,-0.57163829,-0.41287267,-0.85196894
1312471049.99528337,-0.57395816,-0.41447517,-0.85189885
1312471050.03632903,-0.57270151,-0.41056740,-0.84876454
1312471050.08837891,-0.57315737,-0.41346061,-0.85212898
1312471050.14880586,-0.57451057,-0.41431618,-0.85421664
1312471050.18837857,-0.57354128,-0.41091257,-0.85136390
1312471050.23646021,-0.57314032,-0.41471353,-0.85426891
1312471050.29529142,-0.57364863,-0.41484255,-0.85362530
1312471050.33632159,-0.57483095,-0.41142270,-0.85009062
1312471050.38843536,-0.57246375,-0.41627339,-0.85233659
1312471050.43643689,-0.57325846,-0.41407844,-0.85387731
1312471050.48732495,-0.57362914,-0.41318962,-0.85309905
1312471050.53542662,-0.57265323,-0.41486004,-0.85303015
1312471050.59611893,-0.57315844,-0.41435248,-0.85225672
1312471050.63680840,-0.57448149,-0.41258711,-0.84898657
1312471050.68449378,-0.57244611,-0.41528198,-0.84965509
1312471050.74843383,-0.57192791,-0.41357616,-0.85447621
1312471050.79643655,-0.57170641,-0.41237473,-0.85076731
1312471050.83671904,-0.57160842,-0.41137424,-0.84902245
1312471050.89635253,-0.57315189,-0.41374668,-0.85218412
1312471050.94842529,-0.57470584,-0.41236913,-0.84825325
1312471050.99632931,-0.57294589,-0.41108587,-0.85071421
1312471051.04853463,-0.57347208,-0.41051880,-0.85243803
1312471051.09632516,-0.57419938,-0.41052791,-0.85086721
1312471051.14433122,-0.57384270,-0.41156626,-0.84962928
1312471051.19529510,-0.57358617,-0.41039425,-0.85204238
1312471051.23630786,-0.57406598,-0.41205797,-0.85111684
1312471051.29572797,-0.57377833,-0.41232419,-0.85330588
1312471051.34843493,-0.57452768,-0.41146195,-0.84972781
1312471051.39591289,-0.57332808,-0.41195402,-0.85261083
1312471051.44444823,-0.57384318,-0.41108716,-0.84969109
1312471051.49631834,-0.57248759,-0.40980068,-0.85204101
1312471051.54443479,-0.57469279,-0.41015628,-0.85230005
1312471051.59540749,-0.57279938,-0.41030005,-0.85272712
1312471051.64443517,-0.57518071,-0.41181806,-0.85150957
1312471051.69641662,-0.57339734,-0.41041186,-0.85356700
1312471051.74843049,-0.57275152,-0.41222030,-0.85217249
1312471051.79643536,-0.57305813,-0.41131920,-0.85260004
1312471051.84443545,-0.57474577,-0.41157234,-0.85108322
1312471051.89529586,-0.57224631,-0.41068926,-0.85269225
1312471051.94730949,-0.57397479,-0.41195381,-0.85197639
1312471051.99644852,-0.57503533,-0.41100726,-0.85580695
1312471052.03652024,-0.57249379,-0.41107354,-0.85230058
1312471052.09534621,-0.57414389,-0.41469449,-0.85499901
1312471052.14374208,-0.57363719,-0.41114908,-0.85298043
1312471052.19642305,-0.57346416,-0.41062301,-0.85458714
1312471052.24847245,-0.57451755,-0.41138381,-0.85397029
1312471052.29530573,-0.57333171,-0.41100594,-0.85471100
1312471052.34431624,-0.57369208,-0.41129074,-0.85163856
1312471052.39531994,-0.57454610,-0.41086859,-0.85437900
1312471052.44442415,-0.57367510,-0.41356313,-0.85390526
1312471052.49544883,-0.57299644,-0.41140297,-0.85374790
1312471052.54838395,-0.57222831,-0.41038218,-0.85451758
1312471052.59563017,-0.57337290,-0.41143578,-0.85328919
1312471052.64430285,-0.57404304,-0.41053927,-0.85293150
1312471052.69631267,-0.57292080,-0.41142344,-0.85487550
1312471052.74842167,-0.57184702,-0.41005450,-0.85280836
1312471052.79542971,-0.57339638,-0.41155872,-0.85369271
1312471052.83647442,-0.57381499,-0.41180754,-0.85384935
1312471052.89645910,-0.57245356,-0.41434434,-0.85657334
1312471052.93629527,-0.57392192,-0.41155699,-0.85331994
1312471052.99634743,-0.57416469,-0.41573963,-0.85558677
1312471053.04843450,-0.57235640,-0.41015854,-0.85444933
1312471053.09630775,-0.57493961,-0.40985423,-0.85634750
1312471053.14430952,-0.57495499,-0.41395298,-0.85483962
1312471053.19554710,-0.57516170,-0.41139004,-0.85567701
1312471053.24834180,-0.57233298,-0.41003564,-0.85404581
1312471053.29633546,-0.57302362,-0.41168329,-0.85434204
1312471053.34834385,-0.57387209,-0.41077739,-0.85466659
1312471053.39642453,-0.57226896,-0.41104242,-0.85537821
1312471053.44843960,-0.57377732,-0.41245177,-0.85330486
1312471053.49635720,-0.57325691,-0.40987968,-0.85571271
1312471053.54444194,-0.57321280,-0.40914842,-0.85262525
1312471053.59630942,-0.57396060,-0.41078514,-0.85386544
1312471053.63594723,-0.57282597,-0.41207865,-0.85338712
1312471053.69532323,-0.57380927,-0.41471425,-0.85638011
1312471053.74843645,-0.57393014,-0.41257465,-0.85358149
1312471053.79643369,-0.57358688,-0.41103733,-0.85451376
1312471053.84842086,-0.57282579,-0.41197598,-0.85110366
1312471053.89630365,-0.57253456,-0.41004649,-0.85284811
1312471053.94728541,-0.57353580,-0.41221851,-0.85154593
1312471053.99540567,-0.57185924,-0.40954256,-0.85294724
1312471054.03641844,-0.57328820,-0.41081497,-0.85181093
1312471054.09643388,-0.57146531,-0.41438520,-0.85382867
1312471054.14443898,-0.57355982,-0.41371265,-0.85201591
1312471054.19649506,-0.57386643,-0.41179186,-0.85231686
1312471054.24842453,-0.57314098,-0.41244426,-0.85173249
1312471054.29634142,-0.57447666,-0.41037214,-0.85316914
1312471054.34741187,-0.57339740,-0.41055781,-0.84893918
1312471054.39643455,-0.57369131,-0.41152105,-0.85392153
1312471054.43636060,-0.57353932,-0.41218734,-0.85148865
1312471054.49642467,-0.57299250,-0.41395247,-0.85399729
1312471054.53635788,-0.57258463,-0.41117749,-0.85144109
1312471054.59642291,-0.57467276,-0.41339305,-0.85678643
1312471054.64444542,-0.57314098,-0.41244426,-0.85173249
1312471054.69632912,-0.57369226,-0.41037393,-0.85379583
1312471054.74448013,-0.57260299,-0.41091910,-0.85171288
1312471054.79529309,-0.57477933,-0.41100082,-0.85371947
1312471054.83573580,-0.57421672,-0.41141665,-0.85126477
1312471054.89642882,-0.57302523,-0.41496569,-0.85466355
1312471054.94843364,-0.57253581,-0.41322583,-0.85088527
1312471054.99644518,-0.57311153,-0.41115081,-0.85335326
1312471055.04849005,-0.57203269,-0.41154182,-0.85369116
1312471055.09631515,-0.57396126,-0.41113651,-0.85380560
1312471055.14797783,-0.57456434,-0.41254649,-0.85262030
1312471055.19541287,-0.57533270,-0.41217116,-0.85406864
1312471055.23665714,-0.57202536,-0.41106433,-0.85361725
1312471055.29542398,-0.57219172,-0.41564381,-0.85466737
1312471055.34741354,-0.57384676,-0.41396737,-0.85464114
1312471055.39646339,-0.57263643,-0.41145319,-0.85244030
1312471055.44842553,-0.57306337,-0.41373891,-0.85298526
1312471055.49529767,-0.57386094,-0.41218096,-0.85465539
1312471055.54343390,-0.57341886,-0.41282845,-0.85422194
1312471055.59642482,-0.57361627,-0.41131124,-0.85276669
1312471055.64433718,-0.57206297,-0.41235590,-0.85213166
1312471055.69543338,-0.57204372,-0.41080600,-0.85388899
1312471055.74729061,-0.57293195,-0.41297492,-0.85298342
1312471055.79642415,-0.57223225,-0.41155908,-0.85483474
1312471055.84776950,-0.57415819,-0.41232562,-0.85279036
1312471055.89532232,-0.57150084,-0.41093844,-0.85399097
1312471055.94736362,-0.57370698,-0.41310227,-0.85222101
1312471055.99543095,-0.57308477,-0.41116196,-0.85529006
1312471056.03641629,-0.57343096,-0.41027802,-0.85410738
1312471056.09533620,-0.57289153,-0.41420725,-0.85700279
1312471056.14834738,-0.57460135,-0.41256979,-0.85335159
1312471056.19733286,-0.57230347,-0.41169757,-0.85376292
1312471056.24834061,-0.57309294,-0.41116041,-0.85542488
1312471056.28748512,-0.57506990,-0.41166240,-0.85419166
1312471056.34459662,-0.57274914,-0.41393027,-0.85914648
1312471056.39642572,-0.57310838,-0.41036829,-0.85785031
1312471056.43631864,-0.57375604,-0.41217631,-0.85518682
1312471056.48734593,-0.57313257,-0.41492042,-0.85870194
1312471056.54434276,-0.57408816,-0.41376364,-0.85849702
1312471056.59642744,-0.57327384,-0.41226667,-0.85617656
1312471056.63705754,-0.57387376,-0.41202059,-0.85473466
1312471056.68727994,-0.57212687,-0.41315573,-0.85771632
1312471056.74430776,-0.57361484,-0.41187438,-0.85961497
1312471056.79643607,-0.57380301,-0.41242215,-0.85599387
1312471056.84842801,-0.57222104,-0.41194344,-0.85469687
1312471056.89540148,-0.57417065,-0.40998051,-0.85724276
1312471056.94842720,-0.57379073,-0.41191489,-0.85572827
1312471056.99642730,-0.57378978,-0.41010666,-0.85775727
1312471057.04853106,-0.57263988,-0.41229489,-0.85713696
1312471057.08730245,-0.57411361,-0.41101065,-0.85642552
1312471057.14444065,-0.57353634,-0.41252643,-0.85839629
1312471057.19540095,-0.57305735,-0.40961364,-0.85691249
1312471057.23644066,-0.57417667,-0.41115072,-0.85521883
1312471057.29528761,-0.57363015,-0.41597313,-0.85810709
1312471057.34837985,-0.57302272,-0.41384935,-0.85459447
1312471057.39529729,-0.57334465,-0.41011772,-0.85719401
